EW1549 Weather Reports


time (UTC)temp
C
wind
direction
speed
KPH
gust
KPH
rain 1hr
cm
rain 24hr
cm
rain mn
cm
humidity
%
barometer
mb
20260902234550 -17 241 4.8 8.0 0.00 0.00 0.00 1017.4
20260902233032 -17 241 0.0 0.0 0.00 0.00 0.00 1017.4
20260902231612 -17 241 0.0 6.4 0.00 0.00 0.00 1017.4
20260902230108 -17 241 3.2 8.0 0.00 0.00 0.00 1017.4
20260902224554 -17 266 1.6 8.0 0.00 0.00 0.00 1017.3
20260902223054 -17 36 0.0 0.0 0.00 0.00 0.00 1017.2
20260902221553 -17 53 0.0 9.7 0.00 0.00 0.00 1017.4
20260902220101 -17 65 4.8 14.5 0.00 0.00 0.00 1017.3
20260902214552 -17 67 0.0 6.4 0.00 0.00 0.00 1017.4
20260902213052 -17 251 0.0 0.0 0.00 0.00 0.00 1017.4
20260902211554 -17 269 0.0 0.0 0.00 0.00 0.00 1017.5
20260902210055 -17 275 3.2 8.0 0.00 0.00 0.00 1017.4
20260902204553 -17 219 0.0 6.4 0.00 0.00 0.00 1017.2
20260902203046 -17 41 4.8 14.5 0.00 0.00 0.00 1017.1
20260902201542 -17 36 0.0 19.3 0.00 0.00 0.00 1016.8
20260902200036 -17 51 12.9 19.3 0.00 0.00 0.00 1016.6
20260902194533 -17 41 9.7 19.3 0.00 0.00 0.00 1016.6
20260902193028 -17 69 6.4 20.9 0.00 0.00 0.00 1016.6
20260902191522 -17 14 8.0 24.1 0.00 0.00 0.00 1016.8
20260902190019 -17 50 14.5 24.1 0.00 0.00 0.00 1016.7
20260902184514 -17 36 9.7 25.7 0.00 0.00 0.00 1016.6
20260902183010 -17 55 12.9 20.9 0.00 0.00 0.00 1016.7
20260902181505 -17 56 6.4 19.3 0.00 0.00 0.00 1016.6
20260902180000 -17 58 14.5 22.5 0.00 0.00 0.00 1016.8
20260902174604 -17 56 17.7 30.6 0.00 0.00 0.00 1016.9
20260902173053 -17 36 16.1 30.6 0.00 0.00 0.00 1017.1
20260902171558 -17 57 22.5 32.2 0.00 0.00 0.00 1017.2
20260902170043 -17 36 14.5 33.8 0.00 0.00 0.00 1017.3
20260902164539 -17 36 25.7 35.4 0.00 0.00 0.00 1017.3
20260902163035 -17 41 19.3 37.0 0.00 0.00 0.00 1017.3
20260902161540 -17 50 24.1 41.8 0.00 0.00 0.00 1017.1
20260902160028 -17 36 17.7 37.0 0.00 0.00 0.00 1017.0
20260902154530 -17 62 17.7 37.0 0.00 0.00 0.00 1016.9
20260902153018 -17 25 22.5 35.4 0.00 0.00 0.00 1016.9
20260902151514 -17 36 12.9 38.6 0.00 0.00 0.00 1017.3
20260902150009 -17 87 20.9 41.8 0.00 0.00 0.00 1017.3
20260902144511 -17 89 19.3 35.4 0.00 0.00 0.00 1017.6
20260902143008 -17 60 20.9 35.4 0.00 0.00 0.00 1017.4
20260902141516 -17 30 14.5 33.8 0.00 0.00 0.00 1017.5
20260902140007 -17 92 17.7 30.6 0.00 0.00 0.00 1017.5
20260902134506 -17 26 9.7 30.6 0.00 0.00 0.00 1017.5
20260902133042 -17 68 12.9 35.4 0.00 0.00 0.00 1017.6
20260902131541 -17 73 19.3 33.8 0.00 0.00 0.00 1017.6
20260902130042 -17 41 12.9 27.4 0.00 0.00 0.00 1017.8
20260902124540 -17 29 16.1 37.0 0.00 0.00 0.00 1018.1
20260902123043 -17 52 19.3 33.8 0.00 0.00 0.00 1018.1
20260902121538 -17 41 20.9 37.0 0.00 0.00 0.00 1018.3
20260902120035 -17 28 19.3 32.2 0.00 0.00 0.00 1018.5
20260902114602 -17 355 24.1 37.0 0.00 0.00 0.00 1018.5
20260902113027 -17 46 11.3 30.6 0.00 0.00 0.00 1018.7
20260902111522 -17 29 14.5 29.0 0.00 0.00 0.00 1018.7
20260902110025 -17 20 16.1 29.0 0.00 0.00 0.00 1018.7
20260902104522 -17 1 16.1 30.6 0.00 0.00 0.00 1018.7
20260902103017 -17 23 14.5 29.0 0.00 0.00 0.00 1018.5
20260902101506 -17 41 4.8 24.1 0.00 0.00 0.00 1018.6
20260902100012 -17 8 0.0 9.7 0.00 0.00 0.00 1018.6
20260902094505 -17 3 11.3 22.5 0.00 0.00 0.00 1018.6
20260902093001 -17 339 9.7 17.7 0.00 0.00 0.00 1018.6
20260902091558 -17 356 4.8 20.9 0.00 0.00 0.00 1018.5
20260902090059 -17 28 0.0 12.9 0.00 0.00 0.00 1018.5
20260902084547 -17 238 6.4 12.9 0.00 0.00 0.00 1018.2
20260902083045 -17 243 3.2 11.3 0.00 0.00 0.00 1018.1
20260902081541 -17 212 1.6 12.9 0.00 0.00 0.00 1017.8
20260902080033 -17 248 8.0 25.7 0.00 0.00 0.00 1017.6
20260902074539 -17 229 6.4 12.9 0.00 0.00 0.00 1017.6
20260902073025 -17 247 1.6 8.0 0.00 0.00 0.00 1017.5
20260902071521 -17 252 0.0 0.0 0.00 0.00 0.00 1017.4
20260902070017 -17 260 4.8 17.7 0.00 0.00 0.00 1017.3
20260902064512 -17 75 9.7 33.8 0.00 0.00 0.00 1017.4
20260902063016 -17 303 16.1 30.6 0.00 0.00 0.00 1017.3
20260902061521 -17 287 6.4 25.7 0.00 0.00 0.00 1017.2
20260902060111 -17 273 4.8 16.1 0.00 0.00 0.00 1017.1
20260902054559 -17 325 8.0 14.5 0.00 0.00 0.00 1017.0
20260902053102 -17 238 8.0 17.7 0.00 0.00 0.00 1016.9
20260902051555 -17 54 8.0 33.8 0.00 0.00 0.00 1016.8
20260902050047 -17 354 6.4 29.0 0.00 0.00 0.00 1016.7
20260902044540 -17 227 16.1 32.2 0.00 0.00 0.00 1016.5
20260902043037 -17 31 17.7 30.6 0.00 0.00 0.00 1016.6
20260902041535 -17 70 0.0 37.0 0.00 0.00 0.00 1016.8
20260902040026 -17 265 11.3 19.3 0.00 0.00 0.00 1016.7
20260902034526 -17 201 4.8 16.1 0.00 0.00 0.00 1017.0
20260902033017 -17 259 1.6 9.7 0.00 0.00 0.00 1017.1
20260902031516 -17 342 8.0 12.9 0.00 0.00 0.00 1017.1
20260902030007 -17 219 0.0 9.7 0.00 0.00 0.00 1017.2
20260902024503 -17 228 1.6 12.9 0.00 0.00 0.00 1017.2
20260902023103 -17 250 6.4 25.7 0.00 0.00 0.00 1017.1
20260902021555 -17 214 1.6 24.1 0.00 0.00 0.00 1017.2
20260902020056 -17 226 11.3 19.3 0.00 0.00 0.00 1017.2
20260902014543 -17 231 9.7 22.5 0.00 0.00 0.00 1017.4
20260902013039 -17 230 4.8 14.5 0.00 0.00 0.00 1017.6
20260902011532 -17 221 11.3 16.1 0.00 0.00 0.00 1017.7
20260902010033 -17 258 4.8 16.1 0.00 0.00 0.00 1017.8
20260902004520 -17 233 12.9 20.9 0.00 0.00 0.00 1017.8
20260902003018 -17 241 9.7 16.1 0.00 0.00 0.00 1018.0
20260902001517 -17 258 0.0 6.4 0.00 0.00 0.00 1017.9
20260902000018 -17 271 3.2 14.5 0.00 0.00 0.00 1018.0